{"data":{"norad_id":65447,"intl_designator":"2025-194P","name":"STARLINK-34920","alt_names":[],"object_type":"PAYLOAD","status":"ACTIVE","operator":null,"country":"US","launch_date":"2025-09-03","launch_site_code":"AFWTR","launch_vehicle":null,"mission":null,"orbit_class":"UNKNOWN","rcs_meters":null,"size_class":null,"mass_kg":null,"dimensions":null,"purposes":["comms"],"wikipedia_slug":null,"has_3d_model":false,"image_url":null,"decayed_at":null,"tle_current":{"epoch":"2026-09-20T12:59:50.120448Z","epoch_age_seconds":111280,"freshness":"FRESH","line1":"1 65447U 25194P   26263.54155232  .00017929  00000+0  55614-3 0  9994","line2":"2 65447  97.2835 113.1792 0002948  92.7896 267.3685 15.33453577 59071","mean_motion":15.33453577,"eccentricity":0.0002948,"inclination_deg":97.2835,"raan_deg":113.1792,"arg_perigee_deg":92.7896,"mean_anomaly_deg":267.3685,"bstar":0.00055614,"rev_number":5907,"period_min":93.905679415295,"perigee_km":463.50014608707,"apogee_km":467.53516487194,"semimajor_km":6843.6546554795,"source":"CELESTRAK","updated_at":"2026-09-21T09:00:35.611041Z"}}}